Yakima, WA

8:34 PM PDT on April 21, 2018 (GMT -0700)
Yakima Air Term-McAllister

Weather History for KYKM - March, 2013

Change the Weather History Date:

Sunday, March 17, 2013

  Actual Average Record
Temperature  
Mean Temperature 44 °F 44 °F  
Max Temperature 53 °F 57 °F 77 °F (1947)
Min Temperature 34 °F 30 °F 20 °F (1955)
Degree Days  
Heating Degree Days 21 21  
Month to date heating degree days 326 399  
Since 1 July heating degree days 4289 4926  
Cooling Degree Days 0 0  
Month to date cooling degree days 0 0  
Year to date cooling degree days 0 0  
Moisture  
Dew Point 21 °F    
Average Humidity 42    
Maximum Humidity 59    
Minimum Humidity 24    
Precipitation  
Precipitation 0.00 in 0.02 in 0.24 in (1949)
Month to date precipitation 0.51 0.39  
Year to date precipitation 0.64 2.31  
Snow  
Snow 0.00 in 0.10 in 0.10 in (2002)
Month to date snowfall T 0.6  
Year to date snowfall 1.1 8.5  
Since 1 July snowfall 15.3 21.5  
Snow Depth 0.00 in    
Sea Level Pressure  
Sea Level Pressure 30.05 in    
Wind  
Wind Speed 14 mph (West)    
Max Wind Speed 32 mph    
Max Gust Speed 38 mph    
Visibility 10 miles    
Events      
T = Trace of Precipitation, MM = Missing Value Source: NWS Daily Summary

Daily Weather History Graph

Daily Weather History Graph

Search for Another Location

Airport or City:

Astronomy

Mar. 17, 2013 Rise Set
Actual Time 7:10 AM PDT 7:11 PM PDT
Civil Twilight 6:40 AM PDT 7:41 PM PDT
Nautical Twilight 6:05 AM PDT 8:16 PM PDT
Astronomical Twilight 5:29 AM PDT 8:52 PM PDT
Moon 10:07 AM PDT (3/17) 12:42 AM PDT (3/17)
Length of Visible Light 13h 00m
Length of Day
12h 00m
Waxing Crescent, 32% of the Moon is Illuminated
Mar 17
Waxing Crescent
Mar 19
First Quarter
Mar 27
Full
Apr 2
Last Quarter
Apr 10
New

Hourly Weather History & Observations

Time (PDT) Temp. Windchill Dew Point Humidity Pressure Visibility Wind Dir Wind Speed Gust Speed Precip Events Conditions
12:53 AM 37.9 °F 30.5 °F 25.0 °F 60% 29.91 in 10.0 mi SW 11.5 mph - N/A   Clear
1:53 AM 39.0 °F 31.4 °F 23.0 °F 53% 29.92 in 10.0 mi West 12.7 mph 16.1 mph N/A   Clear
2:53 AM 36.0 °F 31.1 °F 21.9 °F 57% 29.94 in 10.0 mi West 5.8 mph - N/A   Clear
3:53 AM 41.0 °F 33.5 °F 24.1 °F 51% 29.96 in 10.0 mi West 13.8 mph - N/A   Clear
4:53 AM 39.0 °F 33.4 °F 24.1 °F 55% 29.98 in 10.0 mi West 8.1 mph - N/A   Clear
5:53 AM 39.9 °F 32.5 °F 24.1 °F 53% 30.00 in 10.0 mi WNW 12.7 mph - N/A   Partly Cloudy
6:53 AM 39.0 °F 31.0 °F 24.1 °F 55% 30.01 in 10.0 mi WNW 13.8 mph - N/A   Clear
7:53 AM 41.0 °F 37.1 °F 21.9 °F 47% 30.04 in 10.0 mi West 5.8 mph - N/A   Partly Cloudy
8:53 AM 45.0 °F 37.6 °F 21.0 °F 39% 30.05 in 10.0 mi West 17.3 mph 28.8 mph N/A   Scattered Clouds
9:53 AM 48.0 °F - 19.0 °F 32% 30.06 in 10.0 mi West 15.0 mph 21.9 mph N/A   Scattered Clouds
10:53 AM 50.0 °F - 19.0 °F 29% 30.06 in 10.0 mi West 23.0 mph 35.7 mph N/A   Mostly Cloudy
11:53 AM 51.1 °F - 19.0 °F 28% 30.08 in 10.0 mi West 18.4 mph 29.9 mph N/A   Scattered Clouds
12:53 PM 51.1 °F - 18.0 °F 27% 30.10 in 10.0 mi West 21.9 mph 29.9 mph N/A   Scattered Clouds
1:53 PM 52.0 °F - 19.0 °F 27% 30.09 in 10.0 mi West 20.7 mph 29.9 mph N/A   Scattered Clouds
2:53 PM 52.0 °F - 15.1 °F 23% 30.08 in 10.0 mi West 27.6 mph 38.0 mph N/A   Scattered Clouds
3:53 PM 51.1 °F - 17.1 °F 26% 30.08 in 10.0 mi West 24.2 mph 29.9 mph N/A   Scattered Clouds
4:53 PM 50.0 °F - 19.0 °F 29% 30.09 in 10.0 mi West 17.3 mph 25.3 mph N/A   Scattered Clouds
5:53 PM 50.0 °F - 21.0 °F 32% 30.09 in 10.0 mi West 23.0 mph 27.6 mph N/A   Mostly Cloudy
6:53 PM 46.0 °F 37.4 °F 19.9 °F 35% 30.08 in 10.0 mi West 25.3 mph 31.1 mph N/A   Partly Cloudy
7:53 PM 44.1 °F 37.4 °F 19.9 °F 38% 30.08 in 10.0 mi West 13.8 mph - N/A   Clear
8:53 PM 41.0 °F 36.4 °F 19.9 °F 43% 30.10 in 10.0 mi SW 6.9 mph - N/A   Clear
9:53 PM 39.9 °F 37.8 °F 21.0 °F 47% 30.11 in 10.0 mi Variable 3.5 mph - N/A   Clear
10:53 PM 39.0 °F 36.8 °F 21.0 °F 49% 30.11 in 10.0 mi West 3.5 mph - N/A   Clear
11:53 PM 37.9 °F 34.4 °F 19.9 °F 48% 30.12 in 10.0 mi SW 4.6 mph - N/A   Clear